Wind_Speed
11 11 8 6 5 6 8 12 4 3 11 12 13 22 15 9 9 10 10 8 7 6 5 5 4 4 2 2 1 2 2 2 2 3 2 3 4 5 4 4 4 4 3
11 12 11 10 6 8 9 7 6 6 10 8 11 13 15 8 5 7 9 9 7 5 4 3 3 2 1 1 1 2 2 3 3 4 4 4 4 4 4 4 4 3 3
9 6 12 13 12 12 11 7 8 8 11 9 9 8 8 9 4 5 5 6 8 6 5 4 4 3 2 2 2 2 3 4 4 5 5 5 5 5 5 5 4 4 4
9 10 11 10 9 9 7 9 10 8 6 8 7 7 8 7 8 4 5 4 4 5 7 7 5 4 4 4 3 3 4 5 5 6 6 7 7 7 7 6 6 6 5
7 7 7 9 7 8 9 5 3 5 6 6 5 9 10 9 7 8 9 4 6 5 4 5 6 5 4 4 4 4 4 5 6 7 8 8 9 9 9 8 7 7 7
6 5 10 11 8 13 12 6 8 8 4 6 4 6 11 13 9 11 8 7 5 5 2 3 2 3 5 5 4 5 5 6 8 9 11 12 12 12 12 11 10 9 8
9 7 8 8 7 10 11 10 7 6 4 2 4 3 8 12 13 15 13 9 9 7 5 2 1 1 3 2 3 5 7 9 11 12 13 13 13 13 13 13 12 12 11
9 10 8 7 5 8 8 6 1 2 2 4 2 3 2 2 7 5 18 11 8 11 8 4 3 4 4 6 6 6 8 12 13 13 12 13 13 13 12 12 10 11 12
11 7 10 6 13 6 7 5 3 2 4 1 1 2 1 1 1 4 12 9 7 12 11 5 6 2 5 5 7 7 7 11 12 10 13 14 14 13 14 13 9 8 7
10 5 7 6 8 5 6 6 3 3 5 8 6 3 1 2 2 2 7 8 8 10 10 8 10 3 2 3 5 4 6 11 14 9 14 15 14 14 15 14 12 9 7
10 9 8 6 7 6 10 5 4 2 5 7 13 8 2 4 5 2 3 4 8 11 10 11 13 10 4 3 6 8 9 11 13 11 13 15 14 13 15 14 13 10 8
10 11 11 10 7 8 7 7 4 1 1 5 8 9 15 4 5 3 1 5 12 14 8 3 4 10 7 7 4 6 10 11 10 11 13 15 15 12 14 15 13 10 8
13 13 14 12 11 9 11 7 6 4 3 2 5 7 9 10 13 8 4 3 4 6 10 9 5 4 6 5 3 6 9 11 11 12 12 14 14 12 13 14 12 10 8
15 15 13 14 12 12 11 9 10 10 5 4 4 6 7 9 12 15 8 7 3 6 5 4 10 7 5 2 1 8 11 15 13 15 14 12 12 13 13 13 11 9 7
13 15 15 11 12 12 10 11 11 7 9 8 9 7 8 8 11 14 7 8 4 2 2 2 1 7 4 4 8 12 14 18 13 15 15 10 9 10 11 11 9 8 7
14 11 18 15 14 14 12 10 8 11 11 11 16 11 11 8 10 12 13 14 7 1 1 6 11 2 1 8 13 15 16 17 11 13 10 6 7 7 8 9 7 6 7
13 18 19 16 14 12 13 14 12 12 9 13 11 11 8 7 9 12 11 10 12 8 4 5 8 7 13 15 13 18 17 18 16 15 16 12 9 8 6 6 6 5 6
16 14 14 16 17 17 15 14 14 14 12 17 17 17 13 8 9 10 10 11 9 11 10 13 15 16 15 13 17 18 15 19 21 20 16 12 12 11 8 7 6 6 5
17 15 13 17 22 16 15 19 15 15 12 14 14 13 14 13 15 15 15 14 12 12 12 12 15 15 17 21 23 23 24 21 12 14 12 15 12 14 11 10 8 7 7
20 20 18 19 17 17 20 18 18 18 17 17 15 16 17 16 16 17 15 15 15 17 18 16 17 18 20 22 15 13 11 10 11 12 16 19 14 13 14 13 12 12 10
22 22 21 21 20 22 22 22 22 21 19 21 20 18 18 19 19 20 19 18 16 17 18 16 14 14 14 12 9 14 18 19 20 19 20 16 21 22 19 17 19 16 14
22 23 22 22 24 22 24 24 24 25 23 21 22 23 23 21 20 22 21 20 22 20 19 17 18 18 20 18 21 22 22 21 9 14 18 27 23 22 21 21 22 19 19
19 21 22 22 24 25 26 24 25 30 29 27 25 24 23 22 22 23 23 26 28 27 26 26 27 29 29 30 29 29 27 25 23 23 22 27 24 27 27 26 24 22 22
4 10 18 20 23 25 27 28 30 28 23 26 28 28 29 28 27 25 26 20 24 28 29 28 28 30 29 28 28 28 26 25 25 26 21 23 30 29 28 28 23 17 20
11 9 9 15 19 23 25 27 27 30 31 32 29 28 29 30 27 24 28 29 27 28 27 27 27 27 26 24 26 27 26 23 20 27 28 20 30 28 27 22 17 12 14
16 15 14 12 15 21 22 24 25 29 33 33 32 33 33 35 32 31 32 31 33 36 33 31 28 29 29 30 27 29 29 28 22 21 23 14 23 18 6 17 12 14 17
Wind_Direction
133 154 165 154 177 135 115 127 125 117 83 93 85 133 138 110 101 103 111 112 117 120 121 125 126 124 93 40 26 16 356 344 355 1 347 345 331 347 1 12 15 17 26
146 121 151 160 133 122 127 116 102 94 119 100 98 96 127 110 111 107 107 113 111 115 124 123 114 113 93 52 353 349 340 345 352 354 347 340 342 345 347 345 349 347 354
154 152 133 148 128 132 119 138 142 133 121 116 117 132 117 121 114 152 131 119 112 103 107 104 91 74 70 56 43 16 5 5 6 1 355 354 350 345 342 338 329 322 319
163 139 162 161 148 146 136 123 160 139 128 158 160 160 144 153 171 224 179 167 143 98 90 93 89 79 72 69 57 38 28 18 9 6 2 356 352 346 340 335 328 317 302
158 159 171 151 164 223 171 126 164 179 205 180 210 214 204 193 174 182 187 168 185 145 107 76 68 79 77 71 58 39 26 13 3 355 346 339 337 334 331 327 322 313 300
188 177 170 157 123 168 156 126 146 148 173 208 261 291 221 213 212 195 184 185 182 171 135 78 22 72 71 71 58 33 12 357 349 340 336 332 327 321 314 307 302 298 296
176 179 149 158 155 177 170 157 136 163 248 173 268 9 240 239 227 214 196 199 192 188 157 94 37 276 277 315 32 16 358 350 341 340 339 337 336 330 320 304 290 282 280
173 183 164 155 116 160 174 146 114 44 53 178 127 85 16 258 244 274 196 205 183 201 189 210 286 239 269 302 285 321 345 347 348 350 354 352 350 350 348 334 312 287 275
172 179 148 146 156 187 175 149 105 119 352 144 354 119 118 172 198 135 148 186 175 189 192 201 216 214 234 277 293 306 335 356 356 1 358 357 0 5 5 4 357 339 308
179 191 158 142 182 195 188 151 193 96 40 1 343 232 139 103 124 357 202 184 187 204 202 213 220 205 152 255 271 347 6 6 6 1 1 1 4 8 12 10 10 5 352
186 188 168 176 183 227 187 157 166 142 62 31 30 28 321 96 94 152 233 213 208 213 218 230 242 231 222 226 182 20 15 5 9 10 5 3 3 8 9 12 14 6 6
177 195 193 189 190 196 190 191 200 95 108 32 33 24 38 27 28 13 203 225 206 215 183 168 195 229 225 219 246 3 7 1 355 0 2 1 5 6 7 10 13 7 8
206 207 191 200 198 205 200 205 226 208 223 325 16 1 17 15 3 342 12 198 194 195 212 190 179 176 207 229 232 354 348 347 339 338 349 350 6 7 8 9 18 19 25
199 201 199 218 218 203 180 203 224 227 236 253 287 317 323 347 356 1 346 48 28 13 24 198 206 214 193 106 352 324 323 331 324 324 330 328 356 11 9 10 16 21 36
196 186 193 209 209 203 208 208 225 218 242 273 268 288 304 316 328 358 4 39 78 48 312 309 322 211 174 274 315 327 325 326 312 320 327 295 333 7 12 10 15 23 27
187 198 200 193 200 217 198 212 224 229 244 252 253 265 291 285 299 328 1 11 6 339 228 12 31 133 2 318 329 330 333 340 323 331 323 289 308 337 3 8 8 9 15
206 210 203 203 197 214 213 213 223 229 227 230 236 255 290 279 295 306 314 340 8 29 0 346 322 312 312 317 317 315 310 331 334 327 327 312 295 297 323 345 356 346 356
203 215 217 193 209 210 207 220 223 230 241 230 246 253 251 264 287 303 300 307 324 342 335 317 320 329 332 323 317 316 298 314 326 328 317 306 284 280 290 304 325 324 321
208 204 214 206 214 210 215 225 229 232 230 223 248 248 253 255 261 268 274 284 293 295 307 317 320 325 322 310 310 306 301 300 324 349 4 358 308 277 277 286 289 295 293
213 219 220 229 225 221 227 225 230 234 231 231 238 243 247 253 257 263 272 277 280 288 290 300 307 303 298 312 348 355 347 346 331 322 331 335 349 314 286 282 275 273 268
224 223 223 224 232 233 232 231 231 236 234 235 232 235 240 250 256 256 260 269 272 275 277 284 296 301 306 312 336 334 331 329 320 324 326 312 317 316 307 297 287 264 262
237 233 230 231 232 233 235 236 240 238 238 238 239 240 240 243 251 256 253 256 259 256 259 268 275 278 283 290 295 305 309 315 319 317 315 312 317 312 308 298 297 273 252
243 239 237 237 241 239 239 239 245 245 241 238 241 245 246 245 248 257 258 255 254 258 261 264 266 269 275 281 289 293 296 301 297 302 306 302 306 307 312 311 294 282 250
287 247 247 247 250 252 251 252 252 256 249 244 245 247 246 249 253 253 259 266 258 259 262 265 265 270 276 284 284 286 289 290 290 291 290 285 294 292 300 309 304 271 249
333 324 276 257 258 257 254 255 257 257 259 259 255 251 251 252 253 252 257 261 262 260 262 262 264 268 271 276 281 282 281 277 281 284 290 279 287 284 292 304 308 257 244
317 310 303 284 272 262 259 261 260 263 266 263 263 261 258 256 256 257 253 256 262 265 263 261 258 260 262 265 267 268 269 264 265 288 286 257 287 292 291 297 308 295 249
Height
868 869 872 873 874 874 872 873 874 875 875 874 874 875 878 879 879 879 879 879 879 880 880 880 881 881 881 880 879 878 878 877 876 875 874 873 872 871 870 868 867 866 865
869 871 873 872 873 872 872 873 874 875 876 876 876 877 878 878 879 880 881 880 880 880 880 880 881 880 880 879 879 878 877 876 875 875 873 872 871 870 869 867 867 866 865
870 871 872 873 874 873 873 874 875 876 877 877 878 879 879 879 879 880 881 881 881 881 881 881 880 880 880 879 879 878 877 876 875 874 873 872 871 869 868 867 866 865 864
871 872 873 873 875 876 875 876 876 877 878 879 879 880 880 880 880 880 880 881 882 882 882 881 880 880 880 879 878 878 877 876 876 875 873 872 871 869 868 867 866 865 863
871 872 872 874 875 874 876 877 878 879 878 878 880 880 880 880 881 881 880 881 881 882 882 882 882 881 880 879 878 878 877 876 876 874 873 872 871 869 867 866 864 863 861
872 871 872 874 875 875 875 878 879 878 878 879 879 880 879 880 880 881 882 881 881 882 882 882 883 882 881 879 879 878 877 876 875 874 873 871 869 868 866 864 862 860 859
872 872 873 875 875 876 876 877 879 879 879 879 879 877 877 878 878 880 882 881 881 881 881 882 882 881 880 880 879 878 877 876 874 874 872 869 867 865 862 859 858 857 856
871 872 876 876 873 876 877 877 877 878 879 879 878 877 879 878 877 878 879 881 881 881 881 882 881 880 880 880 879 878 877 875 874 873 871 869 866 863 860 857 855 853 853
871 871 874 875 877 877 878 878 878 879 879 878 878 877 879 881 879 879 879 880 881 880 881 881 880 880 879 879 879 878 877 876 874 872 870 867 865 862 859 856 853 851 850
870 871 873 874 877 877 878 879 878 879 879 879 878 877 876 877 880 883 880 880 881 880 880 880 880 879 879 879 878 878 877 876 873 871 870 867 864 862 859 855 853 851 848
869 872 874 875 876 876 877 878 879 879 880 880 879 878 877 877 879 879 883 879 880 879 879 878 878 879 879 879 878 878 877 875 873 871 869 867 864 862 859 856 854 850 849
869 870 873 874 875 876 877 878 879 878 879 880 880 880 879 879 879 878 879 878 877 877 878 877 877 878 878 878 878 877 876 875 873 871 869 867 864 862 859 856 854 851 849
868 869 871 873 873 875 876 878 879 878 879 880 880 879 880 879 879 878 877 876 876 877 877 877 877 876 877 877 877 877 875 874 872 870 869 866 864 861 860 856 854 852 850
866 867 870 872 872 874 876 876 878 878 879 879 879 879 880 880 879 878 878 876 877 877 877 876 877 876 877 876 876 876 874 872 871 868 867 865 864 861 859 857 854 852 851
864 865 868 871 872 873 874 876 877 877 877 877 877 879 879 880 879 879 878 877 877 882 879 876 877 877 877 876 876 874 873 871 868 867 865 865 863 861 859 857 855 853 852
861 862 865 867 870 872 873 874 875 877 876 877 876 877 877 878 878 878 878 878 877 878 879 878 877 877 877 877 875 873 872 869 867 865 864 863 862 860 858 857 855 854 852
861 861 863 866 867 869 871 873 874 876 876 875 875 876 876 875 876 877 877 877 877 878 877 878 878 878 877 875 873 872 870 867 866 864 863 861 861 859 858 857 855 853 852
859 861 862 863 865 867 869 871 873 874 873 874 874 874 875 875 874 875 875 876 877 877 877 876 875 875 874 873 871 870 868 866 864 861 860 859 859 858 857 857 855 853 851
855 857 859 860 862 864 865 869 871 872 871 872 872 873 873 874 874 875 875 874 874 874 875 875 873 873 872 871 869 867 865 865 863 861 859 858 857 855 856 855 853 851 850
854 853 854 857 858 860 863 866 867 868 868 869 869 870 871 871 872 872 872 872 872 872 872 872 871 871 871 869 868 865 864 863 861 860 858 855 855 853 853 852 851 849 848
851 852 852 853 855 858 860 862 863 863 863 864 865 866 867 868 868 869 869 869 870 870 870 870 870 869 868 868 867 866 864 862 860 858 856 854 851 850 850 848 846 846 844
850 850 848 849 851 853 855 857 859 859 859 860 861 862 862 863 864 865 865 865 866 866 866 867 867 866 865 865 864 863 861 860 857 856 853 851 849 845 845 843 842 841 840
848 847 845 845 847 849 851 853 853 855 855 855 856 857 858 858 859 860 860 860 861 861 861 862 861 861 861 860 860 858 857 856 854 852 851 848 847 843 840 838 836 836 835
843 842 841 841 843 844 846 848 849 850 851 850 850 851 852 853 854 855 855 854 854 855 856 856 855 854 855 855 854 853 853 851 849 847 849 844 841 839 836 834 831 830 831
839 838 837 838 840 840 841 843 845 844 843 843 844 845 846 846 848 850 850 849 848 847 848 848 848 848 849 849 849 849 848 848 844 840 840 841 834 832 832 829 827 826 826
837 836 834 835 835 835 836 837 839 838 837 837 837 838 839 839 840 842 843 843 841 839 841 841 840 840 841 841 842 842 842 841 841 836 831 834 829 829 827 824 823 822 823